Location: Unspecified
(43.4354°N, 0.0000°E)
Time: 16:30:35
(UTC+00:00)

Vanguard 2 Rocket - Pass Details

Date: 25 June 2019
Orbit: 554 x 3326 km, 32.9° (Epoch: 21 July)

Event Time Altitude Azimuth Distance (km) Brightness Sun altitude
Rises 21:54:37 0° 246° (WSW) 3,803 10.2 -17.0°
Reaches altitude 10° 21:56:55 10° 240° (WSW) 3,110 9.6 -17.2°
Maximum altitude 22:04:29 46° 169° (S) 2,164 8.3 -17.9°
Drops below altitude 10° 22:17:31 10° 103° (ESE) 5,251 10.4 -18.9°
Sets 22:22:42 0° 99° (E) 6,651 11.0 -19.3°
